Franklin, NC

3:25 AM EDT on October 23, 2017 (GMT -0400)
Franklin

Weather History for K1A5 - January, 2006

Change the Weather History Date:

Thursday, January 12, 2006

  Actual Average (KTOC) Record (KTOC)
Temperature  
Mean Temperature 50 °F -  
Max Temperature 68 °F 49 °F 75 °F (2017)
Min Temperature 33 °F 29 °F 28 °F (2016)
Degree Days  
Heating Degree Days 14    
Moisture  
Dew Point 34 °F    
Average Humidity 80    
Maximum Humidity 93    
Minimum Humidity 20    
Precipitation  
Precipitation 0.00 in - - ()
Sea Level Pressure  
Sea Level Pressure 30.09 in    
Wind  
Wind Speed 0 mph (NNE)    
Max Wind Speed 4 mph    
Max Gust Speed -    
Visibility 5 miles    
Events Fog    
Averages and records for this station are not official NWS values.
T = Trace of Precipitation, MM = Missing Value Source: NWS Daily Summary

Daily Weather History Graph

Daily Weather History Graph

Search for Another Location

Airport or City:

Trip Planner

Search our weather history database for the weather conditions in past years. The results will help you decide how hot, cold, wet, or windy it might be!

Date:

Astronomy

Jan. 12, 2006 Rise Set
Actual Time 7:42 AM EST 5:41 PM EST
Civil Twilight 7:14 AM EST 6:09 PM EST
Nautical Twilight 6:43 AM EST 6:41 PM EST
Astronomical Twilight 6:12 AM EST 7:11 PM EST
Moon 3:59 PM EST (1/12) 6:37 AM EST (1/12)
Length of Visible Light 10h 55m
Length of Day
9h 59m
Waxing Gibbous, 97% of the Moon is Illuminated
Jan 12
Waxing Gibbous
Jan 14
Full
Jan 22
Last Quarter
Jan 29
New
Feb 5
First Quarter

Hourly Weather History & Observations

Time (EST) Temp. Dew Point Humidity Pressure Visibility Wind Dir Wind Speed Gust Speed Precip Events Conditions
12:00 AM 35.6 °F 32.0 °F 87% 30.12 in 0.2 mi Calm Calm - N/A Fog Fog
12:20 AM 35.6 °F 33.8 °F 93% 30.11 in 0.2 mi Calm Calm - N/A Fog Fog
12:40 AM 35.6 °F 33.8 °F 93% 30.11 in 0.2 mi Calm Calm - N/A Fog Fog
1:00 AM 35.6 °F 33.8 °F 93% 30.11 in 0.2 mi Calm Calm - N/A Fog Fog
1:40 AM 35.6 °F 33.8 °F 93% 30.11 in 0.2 mi Calm Calm - N/A Fog Fog
2:00 AM 35.6 °F 33.8 °F 93% 30.11 in 0.2 mi Calm Calm - N/A Fog Fog
2:20 AM 33.8 °F 32.0 °F 93% 30.11 in 0.2 mi Calm Calm - N/A Fog Fog
3:00 AM 33.8 °F 32.0 °F 93% 30.11 in 0.2 mi Calm Calm - N/A Fog Fog
3:20 AM 33.8 °F 32.0 °F 93% 30.11 in 0.2 mi Calm Calm - N/A Fog Fog
3:40 AM 33.8 °F 32.0 °F 93% 30.11 in 0.2 mi Calm Calm - N/A Fog Fog
4:00 AM 33.8 °F 32.0 °F 93% 30.11 in 0.2 mi Calm Calm - N/A Fog Fog
4:20 AM 33.8 °F 32.0 °F 93% 30.11 in 0.2 mi Calm Calm - N/A Fog Fog
5:00 AM 33.8 °F 32.0 °F 93% 30.11 in 0.2 mi Calm Calm - N/A Fog Fog
6:00 AM 33.8 °F 32.0 °F 93% 30.11 in 0.2 mi Calm Calm - N/A Fog Fog
6:20 AM 33.8 °F 32.0 °F 93% 30.12 in 0.2 mi Calm Calm - N/A Fog Fog
7:00 AM 33.8 °F 32.0 °F 93% 30.13 in 0.2 mi Calm Calm - N/A Fog Fog
7:20 AM 33.8 °F 32.0 °F 93% 30.14 in 0.2 mi Calm Calm - N/A Fog Fog
7:40 AM 33.8 °F 32.0 °F 93% 30.14 in 0.2 mi Calm Calm - N/A Fog Fog
8:00 AM 33.8 °F 32.0 °F 93% 30.14 in 0.2 mi Calm Calm - N/A Fog Fog
8:20 AM 33.8 °F 32.0 °F 93% 30.14 in 0.2 mi Calm Calm - N/A Fog Fog
8:40 AM 33.8 °F 32.0 °F 93% 30.15 in 0.2 mi Calm Calm - N/A Fog Fog
9:00 AM 33.8 °F 32.0 °F 93% 30.15 in 0.2 mi Calm Calm - N/A Fog Fog
9:20 AM 33.8 °F 32.0 °F 93% 30.16 in 0.2 mi Calm Calm - N/A Fog Fog
9:40 AM 33.8 °F 32.0 °F 93% 30.16 in 0.2 mi Calm Calm - N/A Fog Fog
10:00 AM 33.8 °F 32.0 °F 93% 30.16 in 0.2 mi Calm Calm - N/A Fog Fog
10:20 AM 35.6 °F 33.8 °F 93% 30.16 in 0.2 mi Calm Calm - N/A Fog Fog
11:00 AM 37.4 °F 35.6 °F 93% 30.15 in 0.5 mi Calm Calm - N/A Fog Fog
11:20 AM 39.2 °F 35.6 °F 87% 30.14 in 0.2 mi Calm Calm - N/A Fog Fog
11:40 AM 41.0 °F 39.2 °F 93% 30.13 in 0.5 mi Calm Calm - N/A Fog Fog
12:00 PM 44.6 °F 42.8 °F 93% 30.11 in 10.0 mi Calm Calm - N/A   Scattered Clouds
12:20 PM 46.4 °F 44.6 °F 93% 30.10 in 10.0 mi Calm Calm - N/A   Clear
12:40 PM 48.2 °F 46.4 °F 93% 30.08 in 10.0 mi Calm Calm - N/A   Clear
1:00 PM 53.6 °F 37.4 °F 54% 30.07 in 10.0 mi Calm Calm - N/A   Clear
1:20 PM 57.2 °F 35.6 °F 44% 30.06 in 10.0 mi Calm Calm - N/A   Clear
1:40 PM 59.0 °F 35.6 °F 42% 30.06 in 10.0 mi Calm Calm - N/A   Clear
2:00 PM 60.8 °F 35.6 °F 39% 30.04 in 10.0 mi Calm Calm - N/A   Clear
2:20 PM 62.6 °F 33.8 °F 34% 30.04 in 10.0 mi Calm Calm - N/A   Clear
2:40 PM 64.4 °F 32.0 °F 30% 30.03 in 7.0 mi Calm Calm - N/A   Clear
3:00 PM 66.2 °F 30.2 °F 26% 30.03 in 10.0 mi NNE 3.5 mph - N/A   Clear
3:20 PM 68.0 °F 26.6 °F 21% 30.03 in 10.0 mi NE 3.5 mph - N/A   Clear
4:00 PM 68.0 °F 24.8 °F 20% 30.03 in 10.0 mi NE 3.5 mph - N/A   Clear
5:00 PM 55.4 °F 39.2 °F 54% 30.02 in 10.0 mi Calm Calm - N/A   Clear
5:20 PM 53.6 °F 37.4 °F 54% 30.03 in 10.0 mi WSW 3.5 mph - N/A   Clear
5:40 PM 50.0 °F 37.4 °F 62% 30.04 in 10.0 mi SW 3.5 mph - N/A   Clear
6:00 PM 48.2 °F 35.6 °F 62% 30.04 in 10.0 mi Calm Calm - N/A   Clear
6:20 PM 44.6 °F 35.6 °F 71% 30.05 in 10.0 mi Calm Calm - N/A   Clear
6:40 PM 42.8 °F 35.6 °F 76% 30.05 in 10.0 mi Calm Calm - N/A   Clear
7:00 PM 41.0 °F 35.6 °F 81% 30.05 in 10.0 mi Calm Calm - N/A   Clear
7:20 PM 41.0 °F 35.6 °F 81% 30.06 in 10.0 mi Calm Calm - N/A   Clear
8:00 PM 37.4 °F 33.8 °F 87% 30.06 in 10.0 mi Calm Calm - N/A   Clear
8:20 PM 37.4 °F 33.8 °F 87% 30.07 in 10.0 mi Calm Calm - N/A   Clear
8:40 PM 37.4 °F 33.8 °F 87% 30.07 in 10.0 mi Calm Calm - N/A   Clear
9:00 PM 37.4 °F 33.8 °F 87% 30.08 in 10.0 mi Calm Calm - N/A   Clear
9:20 PM 37.4 °F 33.8 °F 87% 30.08 in 10.0 mi Calm Calm - N/A   Clear
9:40 PM 37.4 °F 33.8 °F 87% 30.08 in 10.0 mi Calm Calm - N/A   Clear
10:00 PM 37.4 °F 35.6 °F 93% 30.08 in 10.0 mi Calm Calm - N/A   Clear
10:20 PM 37.4 °F 33.8 °F 87% 30.07 in 10.0 mi Calm Calm - N/A   Clear
10:40 PM 37.4 °F 33.8 °F 87% 30.06 in 10.0 mi Calm Calm - N/A   Clear
11:00 PM 35.6 °F 33.8 °F 93% 30.06 in 10.0 mi Calm Calm - N/A   Clear
11:20 PM 37.4 °F 33.8 °F 87% 30.06 in 10.0 mi Calm Calm - N/A   Clear